Location: La Brionne
(46.1728°N, 1.7849°E)
Time: 02:55:31
(UTC+00:00)

Cosmos 2219 Rocket - Pass Details

Date: 26 October 2021
Orbit: 827 x 848 km, 71.0° (Epoch: 26 November)

Event Time Altitude Azimuth Distance (km) Brightness Sun altitude
Exits shadow 02:46:56 10° 1° (N) 2,457 4.8 -37.8°
Maximum altitude 02:50:37 18° 42° (NE) 1,980 4.6 -37.2°
Drops below altitude 10° 02:54:21 10° 83° (E) 2,468 5.3 -36.6°
Sets 02:57:39 0° 103° (ESE) 3,402 6.0 -36.1°
